This demonstration page uses our WeatherBlox Daily Observations layout. Learn more.

Left ArrowRight Arrow

Hourly Observations for January 5, 2015

Temp ( °F °C ) Dew Point ( °F °C ) Humidity (%) Winds ( mph kmh ) Pressure ( in mb ) Visibility ( mi km ) Precip ( " mm )
12:51 am 00:51 Clear 41 5 27 -2.8 57 57 SE 9 15 30.38 1029 10 16 N/A
1:51 am 01:51 Clear 40 4.4 27 -2.8 60 60 ESE 12 19 30.37 1029 10 16 N/A
2:51 am 02:51 Clear 40 4.4 27 -2.8 60 60 E 10 17 30.38 1029 10 16 N/A
3:51 am 03:51 Clear 39 3.9 27 -2.8 62 62 ESE 9 15 30.37 1029 10 16 N/A
4:51 am 04:51 Clear 37 2.8 26 -3.3 65 65 ESE 8 13 30.38 1029 10 16 N/A
5:51 am 05:51 Clear 39 3.9 25 -3.9 57 57 ESE 15 24 30.39 1029 10 16 N/A
6:51 am 06:51 Clear 38 3.3 25 -3.9 60 60 SE 13 20 30.41 1030 10 16 N/A
7:51 am 07:51 Sunny 40 4.4 24 -4.4 53 53 SE 15 24 30.44 1031 10 16 N/A
8:51 am 08:51 Sunny 44 6.7 25 -3.9 47 47 SE 12 19 30.46 1032 10 16 N/A
9:51 am 09:51 Sunny 46 7.8 28 -2.2 50 50 SE 13 20 30.46 1032 10 16 N/A
10:51 am 10:51 Sunny 50 10 27 -2.8 41 41 SE 9 15 30.45 1031 10 16 N/A
11:51 am 11:51 Sunny 54 12.2 25 -3.9 33 33 SSE 10 17 30.40 1030 10 16 N/A
12:51 pm 12:51 Sunny 57 13.9 25 -3.9 29 29 SSE 12 19 30.35 1028 10 16 N/A
1:51 pm 13:51 Sunny 60 15.6 25 -3.9 26 26 SSE 8 13 30.32 1027 10 16 N/A
2:51 pm 14:51 Sunny 62 16.7 23 -5 22 22 S 8 13 30.29 1026 10 16 N/A
3:51 pm 15:51 Sunny 62 16.7 23 -5 22 22 S 13 20 30.27 1025 10 16 N/A
4:51 pm 16:51 Sunny 60 15.6 24 -4.4 25 25 S 8 13 30.27 1025 10 16 N/A
5:51 pm 17:51 Clear 52 11.1 26 -3.3 37 37 S 6 9 30.29 1026 10 16 N/A
6:51 pm 18:51 Clear 49 9.4 27 -2.8 43 43 ESE 3 6 30.32 1027 10 16 N/A
7:51 pm 19:51 Clear 44 6.7 28 -2.2 53 53 E 6 9 30.34 1027 10 16 N/A
8:51 pm 20:51 Clear 42 5.6 28 -2.2 58 58 E 9 15 30.34 1028 10 16 N/A
9:51 pm 21:51 Clear 43 6.1 27 -2.8 53 53 E 10 17 30.35 1028 10 16 N/A
10:51 pm 22:51 Clear 44 6.7 27 -2.8 51 51 ESE 9 15 30.36 1028 10 16 N/A
11:51 pm 23:51 Clear 43 6.1 26 -3.3 51 51 E 12 19 30.34 1028 10 16 N/A

Powered by AerisWeather